Year,Month,Day,Hour,Minute,Value (Times are PST for temperature in C)
2015,06,22,00,00,15.20
2015,06,22,00,01,15.20
2015,06,22,00,02,15.20
2015,06,22,00,03,15.20
2015,06,22,00,04,15.20
2015,06,22,00,05,15.20
2015,06,22,00,06,15.20
2015,06,22,00,07,15.20
2015,06,22,00,08,15.20
2015,06,22,00,09,15.20
2015,06,22,00,10,15.20
2015,06,22,00,11,15.20
2015,06,22,00,12,15.20
2015,06,22,00,13,15.20
2015,06,22,00,14,15.20
2015,06,22,00,15,15.20
2015,06,22,00,16,15.20
2015,06,22,00,17,15.20
2015,06,22,00,18,15.20
2015,06,22,00,19,15.20
2015,06,22,00,20,15.20
2015,06,22,00,21,15.20
2015,06,22,00,22,15.20
2015,06,22,00,23,15.20
2015,06,22,00,24,15.20
2015,06,22,00,25,15.20
2015,06,22,00,26,15.20
2015,06,22,00,27,15.10
2015,06,22,00,28,15.10
2015,06,22,00,29,15.20
2015,06,22,00,30,15.20
2015,06,22,00,31,15.20
2015,06,22,00,32,15.20
2015,06,22,00,33,15.20
2015,06,22,00,34,15.20
2015,06,22,00,35,15.20
2015,06,22,00,36,15.10
2015,06,22,00,37,15.10
2015,06,22,00,38,15.10
2015,06,22,00,39,15.00
2015,06,22,00,40,15.00
2015,06,22,00,41,15.00
2015,06,22,00,42,14.90
2015,06,22,00,43,14.90
2015,06,22,00,44,14.90
2015,06,22,00,45,14.80
2015,06,22,00,46,14.80
2015,06,22,00,47,14.70
2015,06,22,00,48,14.70
2015,06,22,00,49,14.60
2015,06,22,00,50,14.60
2015,06,22,00,51,14.60
2015,06,22,00,52,14.60
2015,06,22,00,53,14.50
2015,06,22,00,54,14.50
2015,06,22,00,55,14.40
2015,06,22,00,56,14.40
2015,06,22,00,57,14.40
2015,06,22,00,58,14.40
2015,06,22,00,59,14.30
2015,06,22,01,00,14.30
2015,06,22,01,01,14.30
2015,06,22,01,02,14.30
2015,06,22,01,03,14.20
2015,06,22,01,04,14.20
2015,06,22,01,05,14.20
2015,06,22,01,06,14.20
2015,06,22,01,07,14.20
2015,06,22,01,08,14.20
2015,06,22,01,09,14.20
2015,06,22,01,10,14.20
2015,06,22,01,11,14.20
2015,06,22,01,12,14.30
2015,06,22,01,13,14.30
2015,06,22,01,14,14.30
2015,06,22,01,15,14.20
2015,06,22,01,16,14.20
2015,06,22,01,17,14.20
2015,06,22,01,18,14.20
2015,06,22,01,19,14.10
2015,06,22,01,20,14.10
2015,06,22,01,21,14.10
2015,06,22,01,22,14.00
2015,06,22,01,23,13.90
2015,06,22,01,24,13.90
2015,06,22,01,25,13.80
2015,06,22,01,26,13.80
2015,06,22,01,27,13.80
2015,06,22,01,28,13.70
2015,06,22,01,29,13.70
2015,06,22,01,30,13.70
2015,06,22,01,31,13.60
2015,06,22,01,32,13.60
2015,06,22,01,33,13.60
2015,06,22,01,34,13.60
2015,06,22,01,35,13.60
2015,06,22,01,36,13.60
2015,06,22,01,37,13.60
2015,06,22,01,38,13.50
2015,06,22,01,39,13.50
2015,06,22,01,40,13.60
2015,06,22,01,41,13.50
2015,06,22,01,42,13.50
2015,06,22,01,43,13.60
2015,06,22,01,44,13.60
2015,06,22,01,45,13.60
2015,06,22,01,46,13.60
2015,06,22,01,47,13.60
2015,06,22,01,48,13.50
2015,06,22,01,49,13.50
2015,06,22,01,50,13.50
2015,06,22,01,51,13.50
2015,06,22,01,52,13.50
2015,06,22,01,53,13.60
2015,06,22,01,54,13.60
2015,06,22,01,55,13.70
2015,06,22,01,56,13.70
2015,06,22,01,57,13.70
2015,06,22,01,58,13.70
2015,06,22,01,59,13.70
2015,06,22,02,00,13.70
2015,06,22,02,01,13.70
2015,06,22,02,02,13.80
2015,06,22,02,03,13.80
2015,06,22,02,04,13.80
2015,06,22,02,05,13.80
2015,06,22,02,06,13.70
2015,06,22,02,07,13.70
2015,06,22,02,08,13.70
2015,06,22,02,09,13.70
2015,06,22,02,10,13.60
2015,06,22,02,11,13.60
2015,06,22,02,12,13.60
2015,06,22,02,13,13.50
2015,06,22,02,14,13.50
2015,06,22,02,15,13.50
2015,06,22,02,16,13.40
2015,06,22,02,17,13.40
2015,06,22,02,18,13.40
2015,06,22,02,19,13.40
2015,06,22,02,20,13.40
2015,06,22,02,21,13.40
2015,06,22,02,22,13.40
2015,06,22,02,23,13.30
2015,06,22,02,24,13.30
2015,06,22,02,25,13.30
2015,06,22,02,26,13.30
2015,06,22,02,27,13.30
2015,06,22,02,28,13.30
2015,06,22,02,29,13.30
2015,06,22,02,30,13.30
2015,06,22,02,31,13.30
2015,06,22,02,32,13.20
2015,06,22,02,33,13.20
2015,06,22,02,34,13.20
2015,06,22,02,35,13.10
2015,06,22,02,36,13.10
2015,06,22,02,37,13.10
2015,06,22,02,38,13.00
2015,06,22,02,39,13.00
2015,06,22,02,40,13.00
2015,06,22,02,41,12.90
2015,06,22,02,42,12.90
2015,06,22,02,43,12.90
2015,06,22,02,44,12.80
2015,06,22,02,45,12.80
2015,06,22,02,46,12.80
2015,06,22,02,47,12.80
2015,06,22,02,48,12.80
2015,06,22,02,49,12.70
2015,06,22,02,50,12.70
2015,06,22,02,51,12.70
2015,06,22,02,52,12.70
2015,06,22,02,53,12.70
2015,06,22,02,54,12.70
2015,06,22,02,55,12.70
2015,06,22,02,56,12.70
2015,06,22,02,57,12.70
2015,06,22,02,58,12.60
2015,06,22,02,59,12.60
2015,06,22,03,00,12.60
2015,06,22,03,01,12.60
2015,06,22,03,02,12.60
2015,06,22,03,03,12.60
2015,06,22,04,02,12.30
2015,06,22,04,03,12.30
2015,06,22,04,04,12.30
2015,06,22,04,05,12.30
2015,06,22,04,06,12.30
2015,06,22,04,07,12.20
2015,06,22,04,08,12.20
2015,06,22,04,09,12.20
2015,06,22,04,10,12.20
2015,06,22,04,11,12.10
2015,06,22,04,12,12.10
2015,06,22,04,13,12.10
2015,06,22,04,14,12.10
2015,06,22,04,15,12.10
2015,06,22,04,16,12.00
2015,06,22,04,17,12.00
2015,06,22,04,18,12.00
2015,06,22,04,19,12.00
2015,06,22,04,20,11.90
2015,06,22,04,21,11.90
2015,06,22,04,22,11.90
2015,06,22,04,23,11.90
2015,06,22,04,24,11.80
2015,06,22,04,25,11.80
2015,06,22,04,26,11.80
2015,06,22,04,27,11.80
2015,06,22,04,28,11.80
2015,06,22,04,29,11.80
2015,06,22,04,30,11.80
2015,06,22,04,31,11.70
2015,06,22,04,32,11.70
2015,06,22,04,33,11.70
2015,06,22,04,34,11.70
2015,06,22,04,35,11.70
2015,06,22,04,36,11.70
2015,06,22,04,37,11.70
2015,06,22,04,38,11.70
2015,06,22,04,39,11.70
2015,06,22,04,40,11.70
2015,06,22,04,41,11.60
2015,06,22,04,42,11.60
2015,06,22,04,43,11.60
2015,06,22,04,44,11.60
2015,06,22,04,45,11.60
2015,06,22,04,46,11.60
2015,06,22,04,47,11.60
2015,06,22,04,48,11.60
2015,06,22,04,49,11.60
2015,06,22,04,50,11.60
2015,06,22,04,51,11.60
2015,06,22,04,52,11.60
2015,06,22,04,53,11.50
2015,06,22,04,54,11.50
2015,06,22,04,55,11.50
2015,06,22,04,56,11.50
2015,06,22,04,57,11.50
2015,06,22,04,58,11.50
2015,06,22,04,59,11.50
2015,06,22,05,00,11.50
2015,06,22,05,01,11.50
2015,06,22,05,02,11.50
2015,06,22,05,03,11.50
2015,06,22,05,04,11.50
2015,06,22,05,05,11.50
2015,06,22,05,06,11.50
2015,06,22,05,07,11.50
2015,06,22,05,08,11.50
2015,06,22,05,09,11.50
2015,06,22,05,10,11.50
2015,06,22,05,11,11.50
2015,06,22,05,12,11.50
2015,06,22,05,13,11.50
2015,06,22,05,14,11.50
2015,06,22,05,15,11.50
2015,06,22,05,16,11.50
2015,06,22,05,17,11.50
2015,06,22,05,18,11.50
2015,06,22,05,19,11.50
2015,06,22,05,20,11.50
2015,06,22,05,21,11.50
2015,06,22,05,22,11.50
2015,06,22,05,23,11.60
2015,06,22,05,24,11.60
2015,06,22,05,25,11.60
2015,06,22,05,26,11.60
2015,06,22,05,27,11.60
2015,06,22,05,28,11.60
2015,06,22,05,29,11.60
2015,06,22,05,30,11.70
2015,06,22,05,31,11.70
2015,06,22,05,32,11.70
2015,06,22,05,33,11.70
2015,06,22,05,34,11.70
2015,06,22,05,35,11.70
2015,06,22,05,36,11.70
2015,06,22,05,37,11.70
2015,06,22,05,38,11.70
2015,06,22,05,39,11.70
2015,06,22,05,40,11.70
2015,06,22,05,41,11.70
2015,06,22,05,42,11.70
2015,06,22,05,43,11.70
2015,06,22,05,44,11.70
2015,06,22,05,45,11.70
2015,06,22,05,46,11.70
2015,06,22,05,47,11.70
2015,06,22,05,48,11.70
2015,06,22,05,49,11.70
2015,06,22,05,50,11.70
2015,06,22,05,51,11.70
2015,06,22,05,52,11.70
2015,06,22,05,53,11.70
2015,06,22,05,54,11.80
2015,06,22,05,55,11.80
2015,06,22,05,56,11.80
2015,06,22,05,57,11.80
2015,06,22,05,58,11.80
2015,06,22,05,59,11.80
2015,06,22,06,00,11.80
2015,06,22,06,01,11.80
2015,06,22,06,02,11.80
2015,06,22,06,03,11.80
2015,06,22,06,04,11.80
2015,06,22,06,05,11.80
2015,06,22,06,06,11.80
2015,06,22,06,07,11.80
2015,06,22,06,08,11.80
2015,06,22,06,09,11.80
2015,06,22,06,10,11.80
2015,06,22,06,11,11.80
2015,06,22,06,12,11.80
2015,06,22,06,13,11.80
2015,06,22,06,14,11.80
2015,06,22,06,15,11.80
2015,06,22,06,16,11.80
2015,06,22,06,17,11.80
2015,06,22,06,18,11.80
2015,06,22,06,19,11.80
2015,06,22,06,20,11.80
2015,06,22,06,21,11.90
2015,06,22,06,22,11.90
2015,06,22,06,23,11.90
2015,06,22,06,24,11.90
2015,06,22,06,25,11.90
2015,06,22,06,26,11.90
2015,06,22,06,27,11.90
2015,06,22,06,28,12.00
2015,06,22,06,29,12.00
2015,06,22,06,30,12.00
2015,06,22,06,31,12.00
2015,06,22,06,32,12.10
2015,06,22,06,33,12.10
2015,06,22,06,34,12.10
2015,06,22,06,35,12.20
2015,06,22,06,36,12.20
2015,06,22,06,37,12.20
2015,06,22,06,38,12.20
2015,06,22,06,39,12.30
2015,06,22,06,40,12.30
2015,06,22,06,41,12.30
2015,06,22,06,42,12.30
2015,06,22,06,43,12.30
2015,06,22,06,44,12.30
2015,06,22,06,45,12.30
2015,06,22,06,46,12.40
2015,06,22,06,47,12.40
2015,06,22,06,48,12.40
2015,06,22,06,49,12.50
2015,06,22,06,50,12.50
2015,06,22,06,51,12.50
2015,06,22,06,52,12.60
2015,06,22,06,53,12.60
2015,06,22,06,54,12.60
2015,06,22,06,55,12.70
2015,06,22,06,56,12.70
2015,06,22,06,57,12.70
2015,06,22,06,58,12.80
2015,06,22,06,59,12.80
2015,06,22,07,00,12.80
2015,06,22,07,01,12.90
2015,06,22,07,02,12.90
2015,06,22,07,03,12.90
2015,06,22,07,04,13.00
2015,06,22,07,05,13.00
2015,06,22,07,06,13.10
2015,06,22,07,07,13.10
2015,06,22,07,08,13.10
2015,06,22,07,09,13.20
2015,06,22,07,10,13.20
2015,06,22,07,11,13.30
2015,06,22,07,12,13.30
2015,06,22,07,13,13.40
2015,06,22,07,14,13.40
2015,06,22,07,15,13.50
2015,06,22,07,16,13.50
2015,06,22,07,17,13.60
2015,06,22,07,18,13.70
2015,06,22,07,19,13.70
2015,06,22,07,20,13.80
2015,06,22,07,21,13.90
2015,06,22,07,22,13.90
2015,06,22,07,23,14.00
2015,06,22,07,24,14.10
2015,06,22,07,25,14.20
2015,06,22,07,26,14.20
2015,06,22,07,27,14.30
2015,06,22,07,28,14.30
2015,06,22,07,29,14.30
2015,06,22,07,30,14.40
2015,06,22,07,31,14.40
2015,06,22,07,32,14.40
2015,06,22,07,33,14.40
2015,06,22,07,34,14.40
2015,06,22,07,35,14.30
2015,06,22,07,36,14.30
2015,06,22,07,37,14.30
2015,06,22,07,38,14.30
2015,06,22,07,39,14.30
2015,06,22,07,40,14.30
2015,06,22,07,41,14.30
2015,06,22,07,42,14.40
2015,06,22,07,43,14.40
2015,06,22,07,44,14.40
2015,06,22,07,45,14.40
2015,06,22,07,46,14.40
2015,06,22,07,47,14.40
2015,06,22,07,48,14.30
2015,06,22,07,49,14.30
2015,06,22,07,50,14.20
2015,06,22,07,51,14.20
2015,06,22,07,52,14.20
2015,06,22,07,53,14.10
2015,06,22,07,54,14.10
2015,06,22,07,55,14.10
2015,06,22,07,56,14.00
2015,06,22,07,57,14.00
2015,06,22,07,58,14.00
2015,06,22,07,59,14.00
2015,06,22,08,00,14.10
2015,06,22,08,01,14.10
2015,06,22,08,02,14.10
2015,06,22,08,03,14.10
2015,06,22,08,04,14.10
2015,06,22,08,05,14.10
2015,06,22,08,06,14.10
2015,06,22,08,07,14.10
2015,06,22,08,08,14.10
2015,06,22,08,09,14.10
2015,06,22,08,10,14.10
2015,06,22,08,11,14.20
2015,06,22,08,12,14.20
2015,06,22,08,13,14.20
2015,06,22,08,14,14.20
2015,06,22,08,15,14.30
2015,06,22,08,16,14.30
2015,06,22,08,17,14.30
2015,06,22,08,18,14.30
2015,06,22,08,19,14.30
2015,06,22,08,20,14.30
2015,06,22,08,21,14.30
2015,06,22,08,22,14.40
2015,06,22,08,23,14.40
2015,06,22,08,24,14.40
2015,06,22,08,25,14.50
2015,06,22,08,26,14.60
2015,06,22,08,27,14.60
2015,06,22,08,28,14.70
2015,06,22,08,29,14.70
2015,06,22,08,30,14.80
2015,06,22,08,31,14.80
2015,06,22,08,32,14.90
2015,06,22,08,33,14.90
2015,06,22,08,34,14.90
2015,06,22,08,35,14.90
2015,06,22,08,36,15.00
2015,06,22,08,37,15.00
2015,06,22,08,38,15.00
2015,06,22,08,39,15.10
2015,06,22,08,40,15.10
2015,06,22,08,41,15.10
2015,06,22,08,42,15.10
2015,06,22,08,43,15.10
2015,06,22,08,44,15.10
2015,06,22,08,45,15.10
2015,06,22,08,46,15.10
2015,06,22,08,47,15.10
2015,06,22,08,48,15.20
2015,06,22,08,49,15.20
2015,06,22,08,50,15.20
2015,06,22,08,51,15.20
2015,06,22,08,52,15.30
2015,06,22,08,53,15.30
2015,06,22,08,54,15.40
2015,06,22,08,55,15.40
2015,06,22,08,56,15.50
2015,06,22,08,57,15.60
2015,06,22,08,58,15.60
2015,06,22,08,59,15.70
2015,06,22,09,00,15.70
2015,06,22,09,01,15.80
2015,06,22,09,02,15.90
2015,06,22,09,03,15.90
2015,06,22,09,04,16.00
2015,06,22,09,05,16.10
2015,06,22,09,06,16.20
2015,06,22,09,07,16.20
2015,06,22,09,08,16.30
2015,06,22,09,09,16.40
2015,06,22,09,10,16.50
2015,06,22,09,11,16.50
2015,06,22,09,12,16.60
2015,06,22,09,13,16.60
2015,06,22,09,14,16.70
2015,06,22,09,15,16.70
2015,06,22,09,16,16.70
2015,06,22,09,17,16.70
2015,06,22,09,18,16.70
2015,06,22,09,19,16.70
2015,06,22,09,20,16.70
2015,06,22,09,21,16.70
2015,06,22,09,22,16.70
2015,06,22,09,23,16.70
2015,06,22,09,24,16.70
2015,06,22,09,25,16.70
2015,06,22,09,26,16.70
2015,06,22,09,27,16.70
2015,06,22,09,28,16.80
2015,06,22,09,29,16.80
2015,06,22,09,30,16.80
2015,06,22,09,31,16.80
2015,06,22,09,32,16.90
2015,06,22,09,33,16.90
2015,06,22,09,34,17.00
2015,06,22,09,35,17.00
2015,06,22,09,36,17.10
2015,06,22,09,37,17.10
2015,06,22,09,38,17.20
2015,06,22,09,39,17.20
2015,06,22,09,40,17.30
2015,06,22,09,41,17.30
2015,06,22,09,42,17.40
2015,06,22,09,43,17.40
2015,06,22,09,44,17.50
2015,06,22,09,45,17.60
2015,06,22,09,46,17.60
2015,06,22,09,47,17.70
2015,06,22,09,48,17.80
2015,06,22,09,49,17.80
2015,06,22,09,50,17.90
2015,06,22,09,51,17.90
2015,06,22,09,52,18.00
2015,06,22,09,53,18.00
2015,06,22,09,54,18.10
2015,06,22,09,55,18.10
2015,06,22,09,56,18.20
2015,06,22,09,57,18.20
2015,06,22,09,58,18.20
2015,06,22,09,59,18.20
2015,06,22,10,00,18.20
2015,06,22,10,01,18.20
2015,06,22,10,02,18.20
2015,06,22,10,03,18.20
2015,06,22,10,04,18.30
2015,06,22,10,05,18.30
2015,06,22,10,06,18.30
2015,06,22,10,07,18.40
2015,06,22,10,08,18.40
2015,06,22,10,09,18.40
2015,06,22,10,10,18.40
2015,06,22,10,11,18.40
2015,06,22,10,12,18.40
2015,06,22,10,13,18.40
2015,06,22,10,16,18.40
2015,06,22,10,18,18.50
2015,06,22,10,19,18.60
2015,06,22,10,20,18.70
2015,06,22,10,21,18.80
2015,06,22,10,22,18.90
2015,06,22,10,23,18.90
2015,06,22,10,24,19.00
2015,06,22,10,25,19.10
2015,06,22,10,26,19.10
2015,06,22,10,27,19.10
2015,06,22,10,28,19.00
2015,06,22,10,29,18.90
2015,06,22,10,30,18.90
2015,06,22,10,31,18.80
2015,06,22,10,32,18.80
2015,06,22,10,33,18.70
2015,06,22,10,34,18.70
2015,06,22,10,35,18.60
2015,06,22,10,36,18.60
2015,06,22,10,37,18.60
2015,06,22,10,38,18.70
2015,06,22,10,39,18.70
2015,06,22,10,40,18.70
2015,06,22,10,41,18.70
2015,06,22,10,42,18.70
2015,06,22,10,43,18.70
2015,06,22,10,44,18.70
2015,06,22,10,45,18.80
2015,06,22,10,46,18.80
2015,06,22,10,47,18.80
2015,06,22,10,48,18.80
2015,06,22,10,49,18.80
2015,06,22,10,50,18.80
2015,06,22,10,51,18.80
2015,06,22,10,52,18.80
2015,06,22,10,53,18.90
2015,06,22,10,54,18.90
2015,06,22,10,55,18.90
2015,06,22,10,56,19.00
2015,06,22,10,57,19.00
2015,06,22,10,58,19.10
2015,06,22,10,59,19.10
2015,06,22,11,00,19.10
2015,06,22,11,01,19.10
2015,06,22,11,02,19.10
2015,06,22,11,03,19.10
2015,06,22,11,04,19.10
2015,06,22,11,05,19.10
2015,06,22,11,06,19.10
2015,06,22,11,07,19.00
2015,06,22,11,08,19.00
2015,06,22,11,09,19.00
2015,06,22,11,10,19.00
2015,06,22,11,11,19.00
2015,06,22,11,12,19.00
2015,06,22,11,13,19.00
2015,06,22,11,14,18.90
2015,06,22,11,15,18.80
2015,06,22,11,16,18.80
2015,06,22,11,17,18.70
2015,06,22,11,18,18.70
2015,06,22,11,19,18.70
2015,06,22,11,20,18.70
2015,06,22,11,21,18.70
2015,06,22,11,22,18.80
2015,06,22,11,23,18.80
2015,06,22,11,24,18.80
2015,06,22,11,25,18.80
2015,06,22,11,26,18.80
2015,06,22,11,27,18.80
2015,06,22,11,28,18.70
2015,06,22,11,29,18.70
2015,06,22,11,30,18.60
2015,06,22,11,31,18.60
2015,06,22,11,32,18.50
2015,06,22,11,33,18.40
2015,06,22,11,34,18.40
2015,06,22,11,35,18.40
2015,06,22,11,36,18.40
2015,06,22,11,37,18.40
2015,06,22,11,38,18.50
2015,06,22,11,39,18.50
2015,06,22,11,40,18.50
2015,06,22,11,41,18.60
2015,06,22,11,42,18.70
2015,06,22,11,43,18.70
2015,06,22,11,44,18.70
2015,06,22,11,45,18.70
2015,06,22,11,46,18.70
2015,06,22,11,47,18.60
2015,06,22,11,48,18.50
2015,06,22,11,49,18.50
2015,06,22,11,50,18.40
2015,06,22,11,51,18.40
2015,06,22,11,52,18.40
2015,06,22,11,53,18.40
2015,06,22,11,54,18.40
2015,06,22,11,55,18.40
2015,06,22,11,56,18.40
2015,06,22,11,57,18.40
2015,06,22,11,58,18.40
2015,06,22,11,59,18.30
2015,06,22,12,00,18.30
2015,06,22,12,01,18.30
2015,06,22,12,02,18.30
2015,06,22,12,03,18.30
2015,06,22,12,04,18.30
2015,06,22,12,05,18.40
2015,06,22,12,06,18.40
2015,06,22,12,07,18.50
2015,06,22,12,08,18.50
2015,06,22,12,09,18.40
2015,06,22,12,10,18.40
2015,06,22,12,11,18.40
2015,06,22,12,12,18.40
2015,06,22,12,13,18.40
2015,06,22,12,14,18.50
2015,06,22,12,15,18.60
2015,06,22,12,16,18.70
2015,06,22,12,17,18.80
2015,06,22,12,18,18.80
2015,06,22,12,19,18.90
2015,06,22,12,20,18.90
2015,06,22,12,21,18.80
2015,06,22,12,22,18.80
2015,06,22,12,23,18.80
2015,06,22,12,24,18.70
2015,06,22,12,25,18.70
2015,06,22,12,26,18.70
2015,06,22,12,27,18.70
2015,06,22,12,28,18.80
2015,06,22,12,29,18.80
2015,06,22,12,30,18.90
2015,06,22,12,31,18.90
2015,06,22,12,32,18.90
2015,06,22,12,33,19.00
2015,06,22,12,34,19.00
2015,06,22,12,35,18.90
2015,06,22,12,36,18.90
2015,06,22,12,37,18.90
2015,06,22,12,38,18.80
2015,06,22,12,39,18.80
2015,06,22,12,40,18.70
2015,06,22,12,41,18.70
2015,06,22,12,42,18.70
2015,06,22,12,43,18.70
2015,06,22,12,44,18.70
2015,06,22,12,45,18.70
2015,06,22,12,46,18.60
2015,06,22,12,47,18.60
2015,06,22,12,48,18.50
2015,06,22,12,49,18.50
2015,06,22,12,50,18.50
2015,06,22,12,51,18.40
2015,06,22,12,52,18.40
2015,06,22,12,53,18.50
2015,06,22,12,54,18.60
2015,06,22,12,55,18.60
2015,06,22,12,56,18.70
2015,06,22,12,57,18.80
2015,06,22,12,58,18.90
2015,06,22,12,59,19.00
2015,06,22,13,00,19.10
2015,06,22,13,01,19.20
2015,06,22,13,02,19.20
2015,06,22,13,03,19.20
2015,06,22,13,04,19.20
2015,06,22,13,05,19.10
2015,06,22,13,06,19.10
2015,06,22,13,07,19.00
2015,06,22,13,08,19.00
2015,06,22,13,09,19.10
2015,06,22,13,10,19.10
2015,06,22,13,11,19.20
2015,06,22,13,12,19.20
2015,06,22,13,13,19.10
2015,06,22,13,14,19.00
2015,06,22,13,15,18.90
2015,06,22,13,16,19.00
2015,06,22,13,17,19.10
2015,06,22,13,18,19.20
2015,06,22,13,19,19.30
2015,06,22,13,20,19.30
2015,06,22,13,21,19.40
2015,06,22,13,22,19.40
2015,06,22,13,23,19.40
2015,06,22,13,24,19.40
2015,06,22,13,25,19.40
2015,06,22,13,26,19.40
2015,06,22,13,27,19.30
2015,06,22,13,28,19.30
2015,06,22,13,29,19.20
2015,06,22,13,30,19.20
2015,06,22,13,31,19.10
2015,06,22,13,32,19.10
2015,06,22,13,33,19.10
2015,06,22,13,34,19.20
2015,06,22,13,35,19.20
2015,06,22,13,36,19.30
2015,06,22,13,37,19.40
2015,06,22,13,38,19.40
2015,06,22,13,39,19.50
2015,06,22,13,40,19.60
2015,06,22,13,41,19.70
2015,06,22,13,42,19.80
2015,06,22,13,43,19.80
2015,06,22,13,44,19.80
2015,06,22,13,45,19.80
2015,06,22,13,46,19.90
2015,06,22,13,47,19.90
2015,06,22,13,48,19.90
2015,06,22,13,49,20.00
2015,06,22,13,50,20.00
2015,06,22,13,51,20.00
2015,06,22,13,52,20.00
2015,06,22,13,53,19.90
2015,06,22,13,54,19.80
2015,06,22,13,55,19.70
2015,06,22,13,56,19.70
2015,06,22,13,57,19.70
2015,06,22,13,58,19.70
2015,06,22,13,59,19.70
2015,06,22,14,00,19.80
2015,06,22,14,01,19.80
2015,06,22,14,02,19.80
2015,06,22,14,03,19.90
2015,06,22,14,04,19.90
2015,06,22,14,05,19.90
2015,06,22,14,06,20.00
2015,06,22,14,07,20.10
2015,06,22,14,08,20.10
2015,06,22,14,09,20.10
2015,06,22,14,10,20.10
2015,06,22,14,11,20.20
2015,06,22,14,12,20.20
2015,06,22,14,13,20.20
2015,06,22,14,14,20.30
2015,06,22,14,15,20.20
2015,06,22,14,16,20.20
2015,06,22,14,17,20.20
2015,06,22,14,18,20.20
2015,06,22,14,19,20.10
2015,06,22,14,20,20.00
2015,06,22,14,21,20.00
2015,06,22,14,22,19.90
2015,06,22,14,23,19.90
2015,06,22,14,24,19.90
2015,06,22,14,25,19.90
2015,06,22,14,26,19.90
2015,06,22,14,27,19.80
2015,06,22,14,28,19.70
2015,06,22,14,29,19.70
2015,06,22,14,30,19.60
2015,06,22,14,31,19.60
2015,06,22,14,32,19.70
2015,06,22,14,33,19.70
2015,06,22,14,34,19.70
2015,06,22,14,35,19.70
2015,06,22,14,36,19.70
2015,06,22,14,37,19.60
2015,06,22,14,38,19.70
2015,06,22,14,39,19.70
2015,06,22,14,40,19.70
2015,06,22,14,41,19.70
2015,06,22,14,42,19.80
2015,06,22,14,43,19.80
2015,06,22,14,44,19.80
2015,06,22,14,45,19.80
2015,06,22,14,46,19.90
2015,06,22,14,47,20.00
2015,06,22,14,48,20.00
2015,06,22,14,49,20.10
2015,06,22,14,50,20.10
2015,06,22,14,51,20.00
2015,06,22,14,52,20.00
2015,06,22,14,53,19.90
2015,06,22,14,54,19.80
2015,06,22,14,55,19.80
2015,06,22,14,56,19.70
2015,06,22,14,57,19.70
2015,06,22,14,58,19.70
2015,06,22,14,59,19.70
2015,06,22,15,00,19.70
2015,06,22,15,01,19.70
2015,06,22,15,02,19.70
2015,06,22,15,03,19.60
2015,06,22,15,04,19.60
2015,06,22,15,05,19.60
2015,06,22,15,06,19.60
2015,06,22,15,07,19.50
2015,06,22,15,08,19.50
2015,06,22,15,09,19.50
2015,06,22,15,10,19.50
2015,06,22,15,11,19.60
2015,06,22,15,12,19.60
2015,06,22,15,13,19.70
2015,06,22,15,14,19.70
2015,06,22,15,15,19.70
2015,06,22,15,16,19.70
2015,06,22,15,17,19.70
2015,06,22,15,18,19.70
2015,06,22,15,19,19.70
2015,06,22,15,20,19.70
2015,06,22,15,21,19.70
2015,06,22,15,22,19.70
2015,06,22,15,23,19.70
2015,06,22,15,24,19.70
2015,06,22,15,25,19.80
2015,06,22,15,26,19.80
2015,06,22,15,27,19.80
2015,06,22,15,28,19.80
2015,06,22,15,29,19.90
2015,06,22,15,30,19.90
2015,06,22,15,31,20.00
2015,06,22,15,32,20.10
2015,06,22,15,33,20.10
2015,06,22,15,34,20.00
2015,06,22,15,35,19.90
2015,06,22,15,36,19.80
2015,06,22,15,37,19.70
2015,06,22,15,38,19.70
2015,06,22,15,39,19.60
2015,06,22,15,40,19.50
2015,06,22,15,41,19.50
2015,06,22,15,42,19.40
2015,06,22,15,43,19.40
2015,06,22,15,44,19.40
2015,06,22,15,45,19.40
2015,06,22,15,46,19.40
2015,06,22,15,47,19.40
2015,06,22,15,48,19.40
2015,06,22,15,49,19.40
2015,06,22,15,50,19.40
2015,06,22,15,51,19.40
2015,06,22,15,52,19.50
2015,06,22,15,53,19.50
2015,06,22,15,54,19.50
2015,06,22,15,55,19.50
2015,06,22,15,56,19.60
2015,06,22,15,57,19.60
2015,06,22,15,58,19.60
2015,06,22,15,59,19.60
2015,06,22,16,00,19.60
2015,06,22,16,01,19.60
2015,06,22,16,02,19.60
2015,06,22,16,03,19.70
2015,06,22,16,04,19.70
2015,06,22,16,05,19.70
2015,06,22,16,06,19.80
2015,06,22,16,07,19.80
2015,06,22,16,08,19.80
2015,06,22,16,09,19.90
2015,06,22,16,10,19.90
2015,06,22,16,11,20.00
2015,06,22,16,12,20.00
2015,06,22,16,13,20.10
2015,06,22,16,14,20.20
2015,06,22,16,15,20.30
2015,06,22,16,16,20.30
2015,06,22,16,17,20.40
2015,06,22,16,18,20.40
2015,06,22,16,19,20.50
2015,06,22,16,20,20.60
2015,06,22,16,21,20.60
2015,06,22,16,22,20.60
2015,06,22,16,23,20.60
2015,06,22,16,24,20.60
2015,06,22,16,25,20.50
2015,06,22,16,26,20.50
2015,06,22,16,27,20.50
2015,06,22,16,28,20.50
2015,06,22,16,29,20.60
2015,06,22,16,30,20.60
2015,06,22,16,31,20.60
2015,06,22,16,32,20.60
2015,06,22,16,33,20.60
2015,06,22,16,34,20.60
2015,06,22,16,35,20.60
2015,06,22,16,36,20.60
2015,06,22,16,37,20.50
2015,06,22,16,38,20.40
2015,06,22,16,39,20.40
2015,06,22,16,40,20.50
2015,06,22,16,41,20.50
2015,06,22,16,42,20.60
2015,06,22,16,43,20.60
2015,06,22,16,44,20.60
2015,06,22,16,45,20.60
2015,06,22,16,46,20.60
2015,06,22,16,47,20.60
2015,06,22,16,48,20.50
2015,06,22,16,49,20.50
2015,06,22,16,50,20.40
2015,06,22,16,51,20.40
2015,06,22,16,52,20.30
2015,06,22,16,53,20.30
2015,06,22,16,54,20.30
2015,06,22,16,55,20.40
2015,06,22,16,56,20.40
2015,06,22,16,57,20.50
2015,06,22,16,58,20.60
2015,06,22,16,59,20.60
2015,06,22,17,00,20.70
2015,06,22,17,01,20.70
2015,06,22,17,02,20.70
2015,06,22,17,03,20.70
2015,06,22,17,04,20.80
2015,06,22,17,05,20.80
2015,06,22,17,06,20.90
2015,06,22,17,07,20.90
2015,06,22,17,08,20.90
2015,06,22,17,09,20.90
2015,06,22,17,10,20.90
2015,06,22,17,11,20.90
2015,06,22,17,12,20.90
2015,06,22,17,13,20.90
2015,06,22,17,14,20.80
2015,06,22,17,15,20.80
2015,06,22,17,16,20.80
2015,06,22,17,17,20.80
2015,06,22,17,18,20.80
2015,06,22,17,19,20.80
2015,06,22,17,20,20.80
2015,06,22,17,21,20.80
2015,06,22,17,22,20.90
2015,06,22,17,23,20.90
2015,06,22,17,24,20.90
2015,06,22,17,25,20.90
2015,06,22,17,26,20.90
2015,06,22,17,27,20.90
2015,06,22,17,28,21.00
2015,06,22,17,29,21.00
2015,06,22,17,30,21.10
2015,06,22,17,31,21.10
2015,06,22,17,32,21.00
2015,06,22,17,33,20.90
2015,06,22,17,34,20.90
2015,06,22,17,35,20.90
2015,06,22,17,36,20.80
2015,06,22,17,37,20.80
2015,06,22,17,38,20.80
2015,06,22,17,39,20.80
2015,06,22,17,40,20.80
2015,06,22,17,41,20.80
2015,06,22,17,42,20.80
2015,06,22,17,43,20.70
2015,06,22,17,44,20.70
2015,06,22,17,45,20.70
2015,06,22,17,46,20.80
2015,06,22,17,47,20.80
2015,06,22,17,48,20.80
2015,06,22,17,49,20.90
2015,06,22,17,50,21.00
2015,06,22,17,51,21.10
2015,06,22,17,52,21.10
2015,06,22,17,53,21.10
2015,06,22,17,54,21.10
2015,06,22,17,55,21.10
2015,06,22,17,56,21.10
2015,06,22,17,57,21.20
2015,06,22,17,58,21.20
2015,06,22,17,59,21.20
2015,06,22,18,00,21.30
2015,06,22,18,01,21.30
2015,06,22,18,02,21.30
2015,06,22,18,03,21.30
2015,06,22,18,04,21.20
2015,06,22,18,05,21.20
2015,06,22,18,06,21.20
2015,06,22,18,07,21.10
2015,06,22,18,08,21.10
2015,06,22,18,09,21.10
2015,06,22,18,10,21.10
2015,06,22,18,11,21.10
2015,06,22,18,12,21.10
2015,06,22,18,13,21.10
2015,06,22,18,14,21.10
2015,06,22,18,15,21.00
2015,06,22,18,16,21.00
2015,06,22,18,17,21.00
2015,06,22,18,18,21.10
2015,06,22,18,19,21.10
2015,06,22,18,20,21.20